Location: ????????
(55.3939°N, 37.4780°E)
Time: 22:50:21
(UTC+00:00)

Cosmos 1626 Rocket - Pass Details

Date: 14 April 2026
Orbit: 596 x 624 km, 82.5° (Epoch: 13 May)

Event Time Altitude Azimuth Distance (km) Brightness Sun altitude
Rises 21:34:22 0° 351° (N) 2,860 8.3 -24.9°
Reaches altitude 10° 21:36:39 10° 357° (N) 1,950 7.2 -24.9°
Maximum altitude 21:40:49 47° 72° (ENE) 796 4.1 -24.9°
Enters shadow 21:40:55 47° 77° (ENE) 797 4.1 -24.9°
